Starlink 32367

operational
NORAD ID: 60919 Int'l Des: 2024-154 Owner: SPXS Country: US Constellation: starlink
LEOCIRCULAR

Über Starlink 32367

Beschreibung wird geladen...

Live-Position

3D-Globus wird geladen...

Nächste Überflüge

Höhenverlauf

Altitude vs Time

uPlot chart will show altitude changes over time

Zweizeiliger Elementsatz

1 60919U 24154S 26034.42583117 -.00001217 00000-0 -28974-4 0 9994
2 60919 53.1584 82.6664 0001224 100.4973 259.6166 15.30186558 81093
Epoch: 3. Feb. 2026 • Age: 17 hours

Aktueller Status

Höhe 485.8 km
Geschwindigkeit 7.62 km/s
Subsatellitenpunkt -31.78°S, 131.71°W
Startdatum 31. Aug. 2024
Alter 1.4 years
Typ internet

Technische Details

Klassifizierung Payload
Masse 730.00 kg
Trockenmasse 700.00 kg
Gesamtmasse 730.00 kg
Länge 0.30 m
Durchmesser 4.10 m
Spannweite 29.00 m
Form Box + pan
Hersteller SPXS
Bus-Typ Starlink V2M
Phasenstatus In Orbit
Besitzer/Staat SPXS/US

Große Konstellationen

Loading constellations...